This is the latest recevied weather packets stored in our database for station/object KO4DYK. If no packets are shown the sender has not sent any weather packets the latest 10 day(s).
| Time | Temp. | Humidity | Pressure | Rain* | Wind** | Luminosity | Snow |
|---|---|---|---|---|---|---|---|
| 1777498761 | 18.89° C | 88% | 1017.1 hPa | 0 mm | - | 140 W/m² | - |
| 1777498458 | 18.89° C | 88% | 1017.2 hPa | 0 mm | - | 110 W/m² | - |
| 1777498154 | 18.33° C | 88% | 1017.4 hPa | 0 mm | - | 221 W/m² | - |
| 1777497852 | 18.33° C | 89% | 1017.2 hPa | 0 mm | - | 223 W/m² | - |
| 1777497548 | 18.33° C | 89% | 1017.2 hPa | 0 mm | - | 155 W/m² | - |
| 1777497244 | 18.89° C | 89% | 1017.4 hPa | 0 mm | - | 125 W/m² | - |
| 1777496941 | 18.89° C | 89% | 1017.4 hPa | 0 mm | - | 168 W/m² | - |
| 1777496638 | 18.89° C | 89% | 1017.5 hPa | 0 mm | - | 167 W/m² | - |
| 1777496334 | 18.89° C | 89% | 1017.6 hPa | 0 mm | - | 212 W/m² | - |
| 1777496030 | 18.89° C | 88% | 1017.7 hPa | 0 mm | - | 138 W/m² | - |
| 1777495726 | 18.89° C | 88% | 1017.7 hPa | 0 mm | - | 229 W/m² | - |
| 1777495423 | 19.44° C | 87% | 1017.8 hPa | 0 mm | - | 263 W/m² | - |
| 1777495119 | 19.44° C | 87% | 1018 hPa | 0 mm | - | 324 W/m² | - |
| 1777494817 | 18.89° C | 88% | 1017.8 hPa | 0 mm | - | 370 W/m² | - |
| 1777494513 | 19.44° C | 88% | 1018.1 hPa | 0 mm | - | 271 W/m² | - |
| 1777494211 | 19.44° C | 89% | 1018 hPa | 0 mm | - | 196 W/m² | - |
| 1777493908 | 19.44° C | 87% | 1018.1 hPa | 0 mm | - | 198 W/m² | - |
| 1777493606 | 19.44° C | 86% | 1018.1 hPa | 0 mm | - | 337 W/m² | - |
| 1777493303 | 19.44° C | 87% | 1018.3 hPa | 0 mm | - | 323 W/m² | - |
| 1777492999 | 18.89° C | 88% | 1018.5 hPa | 0 mm | - | 269 W/m² | - |
| 1777492696 | 19.44° C | 88% | 1018.6 hPa | 0 mm | - | 189 W/m² | - |
| 1777492396 | 19.44° C | 87% | 1018.7 hPa | 0 mm | - | 131 W/m² | - |
| 1777492094 | 20° C | 87% | 1018.7 hPa | 0 mm | - | 245 W/m² | - |
| 1777491791 | 20° C | 84% | 1018.5 hPa | 0 mm | - | 354 W/m² | - |
| 1777491487 | 19.44° C | 89% | 1018.6 hPa | 0 mm | - | 344 W/m² | - |
* Rain latest hour (hover to see other rain measurements)
** Current wind speed in m/s (hover to see current wind gust speed)